#timestamp,LO_Frequency,Hit,StdDev 
1689840015.3,286047002.8,N
1689840035.1,286047002.6,N
1689840055.9,286047000.1,N
1689840075.7,286047001.7,N
1689840095.6,286047004.0,Y
1689840115.4,286047000.5,P
1689840135.2,286047001.1,N
1689840155.1,286047000.7,N
1689840156.0,286047000.7,N
1689840175.8,286046998.8,N
1689840195.6,286047000.6,N
1689840215.5,286047000.4,N
1689840235.3,286047000.2,N
1689840255.2,286047000.2,N
1689840275.9,286047000.9,N
1689840295.7,286047000.9,N
1689840315.6,286047001.0,N
1689840335.4,286046999.9,N
1689840355.2,286046999.7,N
1689840375.1,286047002.6,Y
1689840376.0,286047002.6,P
1689840395.8,286046999.7,N
1689840415.7,286047002.6,N
1689840435.5,286047000.6,N
1689840455.3,286046998.2,N
1689840475.2,286047000.7,N
1689840495.9,286047000.3,N
1689840515.7,286047002.2,N
1689840535.6,286047002.6,N
1689840555.4,286047001.4,N
1689840575.2,286047001.6,N
1689840595.1,286047001.3,N
1689840596.0,286047001.3,N
1689840615.8,286047000.1,N
1689840635.7,286046999.9,N
1689840655.5,286046999.5,N
1689840675.3,286046994.9,Y
1689840695.2,286046994.7,P
1689840715.0,286046992.1,N
1689840715.9,286046992.1,N
1689840735.8,286046994.6,N
1689840755.6,286046993.9,N
1689840775.4,286046996.2,N
1689840795.3,286046995.4,N
1689840815.1,286046995.3,N
1689840835.8,286046999.1,N
1689840855.7,286047001.2,N
1689840875.5,286046996.9,N
1689840895.4,286046996.5,N
1689840915.2,286046997.2,N
1689840935.0,286046999.2,N
1689840935.9,286046999.2,N
1689840955.8,286046997.1,N
1689840975.6,286046996.8,N
1689840995.4,286046997.5,N
1689841015.3,286046997.3,N
1689841035.1,286046995.1,N
1689841055.9,286046995.9,N
1689841075.7,286046996.5,N
1689841095.5,286046993.3,N
1689841115.4,286046993.7,N
1689841135.2,286046994.1,N
1689841155.0,286046995.8,N
1689841155.9,286046995.8,N
1689841175.8,286046994.1,N
1689841195.6,286046994.2,N
1689841215.5,286046991.7,Y
1689841235.3,286046995.4,P
1689841255.1,286046996.5,P
1689841275.9,286046997.6,P
1689841295.7,286046997.8,N
1689841315.5,286046997.5,N
1689841335.4,286046995.7,Y
1689841355.2,286046996.5,P
1689841375.1,286046997.3,P
1689841376.0,286046997.3,P
1689841395.8,286046997.0,Y
1689841415.6,286047002.1,P
1689841435.5,286047001.8,N
1689841455.3,286047004.0,N
1689841475.1,286047004.1,N
1689841495.9,286047005.8,N
1689841515.7,286047002.9,N
1689841535.6,286047003.2,N
1689841555.4,286047003.6,N
1689841575.2,286047003.1,N
1689841595.1,286047003.8,N
1689841596.0,286047003.8,N
1689841615.8,286047003.9,N
1689841635.6,286047004.1,N
1689841655.5,286047002.0,N
1689841675.3,286047001.9,N
1689841695.2,286046999.9,N
1689841715.9,286047002.4,N
1689841735.7,286047000.8,N
1689841755.6,286046999.2,N
1689841775.4,286046996.6,N
1689841795.3,286046995.3,N
1689841815.1,286046997.9,N
1689841816.0,286046997.9,N
1689841835.8,286046997.2,N
1689841855.7,286046996.8,N
1689841875.5,286046997.8,N
1689841895.3,286046997.4,N
1689841915.2,286046999.2,N
1689841935.0,286046999.6,N
1689841935.9,286046999.6,N
1689841955.8,286046997.7,N
1689841975.6,286046997.8,N
1689841995.4,286046997.5,N
1689842015.3,286046996.7,N
1689842035.1,286046993.3,N
1689842055.9,286046993.7,N
1689842075.7,286046991.8,N
1689842095.5,286046990.1,Y
1689842115.4,286046992.3,P
1689842135.2,286046993.6,N
1689842155.1,286046993.7,N
1689842156.0,286046993.7,N
1689842175.8,286046994.5,N
1689842195.6,286046994.8,N
1689842215.5,286046992.6,Y
1689842235.3,286046995.3,P
1689842255.1,286046997.7,P
1689842275.9,286046995.1,P
1689842295.7,286046996.1,Y
1689842315.6,286047000.3,P
1689842335.4,286047000.9,N
1689842355.2,286047000.6,N
1689842375.1,286046999.7,N
1689842376.0,286046999.7,N
1689842395.8,286047000.2,N
1689842415.7,286047000.0,N
1689842435.5,286047002.2,N
1689842455.3,286047001.8,N
1689842475.2,286047002.6,N
1689842495.9,286047002.5,N
1689842515.7,286047002.0,N
1689842535.6,286047005.2,N
1689842555.4,286047004.8,N
1689842575.3,286047005.2,N
1689842595.1,286047004.8,N
1689842596.0,286047004.8,N
1689842615.8,286047005.5,N
1689842635.7,286047003.2,N
1689842655.5,286047004.9,N
1689842675.3,286047008.9,Y
1689842725.2,286047006.2,E
1689842735.1,286047003.0,N
1689842755.9,286047002.1,P
1689842775.7,286047002.8,P
1689842795.6,286046998.7,Y
1689842815.4,286046995.1,P
1689842835.2,286046995.9,N
1689842855.1,286046998.0,N
1689842856.0,286046998.0,N
1689842875.8,286046996.1,N
1689842895.6,286046995.7,N
1689842915.5,286046994.8,N
1689842935.3,286046993.4,N
1689842955.2,286046993.4,N
1689842975.9,286046995.8,N
1689842995.7,286046995.9,N
1689843015.6,286046996.3,N
1689843035.4,286046995.5,N
1689843055.2,286046993.5,N
1689843075.1,286046994.0,N
1689843076.0,286046994.0,N
1689843095.8,286046992.6,Y
1689843115.7,286046997.6,P
1689843135.5,286047011.9,P
1689843155.3,286046998.3,N
1689843175.2,286046998.3,N
1689843195.0,286047001.0,N
1689843195.9,286047001.0,N
1689843215.8,286047002.5,N
1689843235.6,286047002.6,N
1689843255.4,286047002.8,N
1689843275.3,286047001.4,N
1689843295.1,286047003.7,N
1689843315.8,286047003.5,N
1689843335.7,286047007.6,N
1689843355.5,286047005.0,N
1689843375.4,286047005.2,N
1689843395.2,286047004.9,N
1689843415.0,286047008.6,N
1689843415.9,286047008.6,N
1689843435.8,286047006.2,N
1689843455.6,286047006.3,N
1689843475.4,286047008.9,N
1689843495.3,286047008.5,N
1689843515.1,286047009.2,N
1689843535.9,286047006.9,N
1689843555.7,286047007.1,N
1689843575.5,286047006.4,N
1689843595.4,286047006.6,N
